| time (UTC) | temp F | wind direction | speed MPH | gust MPH | rain 1hr in | rain 24hr in | rain mn in | humidity % | barometer mb |
| 20260902181349 | 94 | 119 | 3.0 | 6.0 | 0.00 | 0.21 | 0.00 | 55 | 1016.9 |
| 20260902180846 | 94 | 55 | 3.0 | 5.0 | 0.00 | 0.21 | 0.00 | 56 | 1016.9 |
| 20260902180346 | 94 | 96 | 3.0 | 5.0 | 0.00 | 0.21 | 0.00 | 55 | 1016.9 |
| 20260902175847 | 94 | 102 | 2.0 | 5.0 | 0.00 | 0.21 | 0.00 | 59 | 1016.9 |
| 20260902175615 | 95 | 103 | 1.0 | 4.0 | 0.00 | 0.21 | 0.00 | 58 | 1017.0 |
| 20260902174844 | 94 | 248 | 1.0 | 3.0 | 0.00 | 0.21 | 0.00 | 57 | 1017.2 |
| 20260902174345 | 93 | 207 | 1.0 | 3.0 | 0.00 | 0.21 | 0.00 | 57 | 1017.3 |
| 20260902173845 | 93 | 188 | 1.0 | 3.0 | 0.00 | 0.21 | 0.00 | 58 | 1017.4 |
| 20260902173344 | 92 | 203 | 0.0 | 3.0 | 0.00 | 0.21 | 0.00 | 62 | 1017.5 |
| 20260902172846 | 92 | 353 | 1.0 | 3.0 | 0.00 | 0.21 | 0.00 | 62 | 1017.6 |
| 20260902172345 | 92 | 101 | 1.0 | 4.0 | 0.00 | 0.21 | 0.00 | 59 | 1017.7 |
| 20260902171842 | 92 | 196 | 1.0 | 4.0 | 0.00 | 0.21 | 0.00 | 60 | 1017.7 |
| 20260902171614 | 92 | 46 | 1.0 | 4.0 | 0.00 | 0.21 | 0.00 | 62 | 1017.8 |
| 20260902170840 | 91 | 34 | 2.0 | 4.0 | 0.00 | 0.21 | 0.00 | 62 | 1017.7 |
| 20260902170341 | 91 | 63 | 3.0 | 6.0 | 0.00 | 0.21 | 0.00 | 63 | 1017.8 |
| 20260902165841 | 92 | 71 | 3.0 | 6.0 | 0.00 | 0.21 | 0.00 | 61 | 1017.8 |
| 20260902165340 | 92 | 46 | 2.0 | 5.0 | 0.00 | 0.21 | 0.00 | 60 | 1017.8 |
| 20260902165115 | 92 | 81 | 2.0 | 6.0 | 0.00 | 0.21 | 0.00 | 60 | 1017.9 |
| 20260902164841 | 92 | 80 | 2.0 | 6.0 | 0.00 | 0.21 | 0.00 | 60 | 1017.9 |
| 20260902164112 | 92 | 67 | 3.0 | 8.0 | 0.00 | 0.21 | 0.00 | 63 | 1017.9 |
| 20260902163341 | 92 | 113 | 3.0 | 8.0 | 0.00 | 0.21 | 0.00 | 63 | 1018.0 |
| 20260902162840 | 92 | 77 | 2.0 | 7.0 | 0.00 | 0.21 | 0.00 | 62 | 1018.0 |
| 20260902162341 | 92 | 114 | 1.0 | 5.0 | 0.00 | 0.21 | 0.00 | 65 | 1018.0 |
| 20260902161841 | 92 | 349 | 2.0 | 5.0 | 0.00 | 0.21 | 0.00 | 63 | 1018.1 |
| 20260902161338 | 91 | 51 | 1.0 | 4.0 | 0.00 | 0.21 | 0.00 | 64 | 1018.0 |
| 20260902160839 | 91 | 76 | 1.0 | 4.0 | 0.00 | 0.21 | 0.00 | 66 | 1018.1 |
| 20260902160339 | 90 | 355 | 1.0 | 4.0 | 0.00 | 0.21 | 0.00 | 67 | 1018.1 |
| 20260902155843 | 90 | 55 | 3.0 | 7.0 | 0.00 | 0.21 | 0.00 | 65 | 1018.2 |
| 20260902155839 | 90 | 353 | 2.0 | 6.0 | 0.00 | 0.21 | 0.00 | 63 | 1018.2 |
| 20260902155109 | 91 | 45 | 3.0 | 7.0 | 0.00 | 0.21 | 0.00 | 63 | 1018.1 |
| 20260902154607 | 91 | 101 | 3.0 | 6.0 | 0.00 | 0.21 | 0.00 | 65 | 1018.2 |
| 20260902153837 | 90 | 58 | 3.0 | 6.0 | 0.00 | 0.21 | 0.00 | 65 | 1018.2 |
| 20260902153337 | 90 | 55 | 3.0 | 7.0 | 0.00 | 0.21 | 0.00 | 65 | 1018.2 |
| 20260902152837 | 90 | 56 | 2.0 | 7.0 | 0.00 | 0.21 | 0.00 | 65 | 1018.3 |
| 20260902152337 | 90 | 72 | 2.0 | 5.0 | 0.00 | 0.21 | 0.00 | 66 | 1018.3 |
| 20260902151834 | 90 | 66 | 2.0 | 5.0 | 0.00 | 0.21 | 0.00 | 68 | 1018.2 |
| 20260902151334 | 89 | 81 | 2.0 | 6.0 | 0.00 | 0.21 | 0.00 | 69 | 1018.3 |
| 20260902150835 | 89 | 39 | 2.0 | 6.0 | 0.00 | 0.21 | 0.00 | 67 | 1018.3 |
| 20260902150333 | 89 | 44 | 2.0 | 5.0 | 0.00 | 0.21 | 0.00 | 68 | 1018.3 |
| 20260902145833 | 89 | 44 | 2.0 | 5.0 | 0.00 | 0.21 | 0.00 | 69 | 1018.2 |
| 20260902145333 | 89 | 6 | 2.0 | 4.0 | 0.00 | 0.21 | 0.00 | 69 | 1018.1 |
| 20260902144832 | 89 | 32 | 2.0 | 4.0 | 0.00 | 0.21 | 0.00 | 71 | 1018.1 |
| 20260902144333 | 88 | 41 | 2.0 | 5.0 | 0.00 | 0.21 | 0.00 | 72 | 1018.1 |
| 20260902143830 | 87 | 114 | 2.0 | 5.0 | 0.00 | 0.21 | 0.00 | 71 | 1018.1 |
| 20260902143331 | 87 | 78 | 2.0 | 4.0 | 0.00 | 0.21 | 0.00 | 71 | 1018.1 |
| 20260902142830 | 87 | 99 | 2.0 | 4.0 | 0.00 | 0.21 | 0.00 | 74 | 1018.2 |
| 20260902142330 | 87 | 56 | 2.0 | 5.0 | 0.00 | 0.21 | 0.00 | 74 | 1018.1 |
| 20260902141831 | 86 | 69 | 3.0 | 6.0 | 0.00 | 0.21 | 0.00 | 75 | 1018.1 |
| 20260902141330 | 86 | 58 | 3.0 | 6.0 | 0.00 | 0.21 | 0.00 | 75 | 1018.2 |
| 20260902140831 | 86 | 45 | 2.0 | 5.0 | 0.00 | 0.21 | 0.00 | 77 | 1018.2 |
| 20260902140331 | 85 | 65 | 3.0 | 5.0 | 0.00 | 0.21 | 0.00 | 78 | 1018.2 |
| 20260902135831 | 85 | 63 | 2.0 | 5.0 | 0.00 | 0.21 | 0.00 | 80 | 1018.2 |
| 20260902135330 | 85 | 49 | 2.0 | 5.0 | 0.00 | 0.21 | 0.00 | 82 | 1018.2 |
| 20260902135101 | 84 | 84 | 3.0 | 8.0 | 0.00 | 0.21 | 0.00 | 83 | 1018.2 |
| 20260902134328 | 84 | 86 | 3.0 | 8.0 | 0.00 | 0.21 | 0.00 | 83 | 1018.2 |
| 20260902133829 | 84 | 44 | 3.0 | 7.0 | 0.00 | 0.21 | 0.00 | 84 | 1018.2 |
| 20260902133328 | 83 | 92 | 3.0 | 6.0 | 0.00 | 0.21 | 0.00 | 85 | 1018.2 |
| 20260902133100 | 83 | 84 | 3.0 | 6.0 | 0.00 | 0.21 | 0.00 | 86 | 1018.2 |
| 20260902132329 | 83 | 78 | 2.0 | 6.0 | 0.00 | 0.21 | 0.00 | 86 | 1018.3 |
| 20260902131828 | 83 | 40 | 2.0 | 3.0 | 0.00 | 0.21 | 0.00 | 87 | 1018.3 |
| 20260902131328 | 83 | 94 | 2.0 | 3.0 | 0.00 | 0.21 | 0.00 | 88 | 1018.2 |
| 20260902130829 | 82 | 52 | 1.0 | 3.0 | 0.00 | 0.21 | 0.00 | 88 | 1018.1 |
| 20260902130328 | 82 | 75 | 1.0 | 3.0 | 0.00 | 0.21 | 0.00 | 89 | 1018.1 |
| 20260902125828 | 82 | 82 | 1.0 | 4.0 | 0.00 | 0.21 | 0.00 | 90 | 1018.1 |
| 20260902125327 | 81 | 51 | 1.0 | 4.0 | 0.00 | 0.21 | 0.00 | 90 | 1018.1 |
| 20260902124827 | 81 | 84 | 1.0 | 2.0 | 0.00 | 0.21 | 0.00 | 91 | 1018.2 |
| 20260902124326 | 80 | 67 | 1.0 | 2.0 | 0.00 | 0.21 | 0.00 | 92 | 1018.1 |
| 20260902123826 | 80 | 70 | 1.0 | 3.0 | 0.00 | 0.21 | 0.00 | 93 | 1018.0 |
| 20260902123325 | 79 | 79 | 1.0 | 3.0 | 0.00 | 0.21 | 0.00 | 94 | 1018.1 |
| 20260902122825 | 79 | 41 | 1.0 | 2.0 | 0.00 | 0.21 | 0.00 | 95 | 1018.1 |
| 20260902122555 | 79 | 106 | 1.0 | 1.0 | 0.00 | 0.21 | 0.00 | 95 | 1018.1 |
| 20260902121823 | 78 | 91 | 1.0 | 2.0 | 0.00 | 0.21 | 0.00 | 95 | 1018.1 |
| 20260902121323 | 78 | 91 | 1.0 | 2.0 | 0.00 | 0.21 | 0.00 | 95 | 1018.1 |
| 20260902120820 | 78 | 102 | 0.0 | 2.0 | 0.00 | 0.21 | 0.00 | 96 | 1018.0 |
| 20260902120321 | 78 | 105 | 0.0 | 1.0 | 0.00 | 0.21 | 0.00 | 96 | 1018.0 |
| 20260902120052 | 77 | 105 | 0.0 | 1.0 | 0.00 | 0.21 | 0.00 | 96 | 1017.9 |
| 20260902115319 | 77 | 105 | 0.0 | 1.0 | 0.00 | 0.21 | 0.00 | 96 | 1017.9 |
| 20260902114819 | 77 | 105 | 0.0 | 1.0 | 0.00 | 0.21 | 0.00 | 96 | 1017.8 |
| 20260902114317 | 76 | 105 | 0.0 | 1.0 | 0.00 | 0.21 | 0.00 | 96 | 1017.7 |
| 20260902113817 | 76 | 105 | 0.0 | 1.0 | 0.00 | 0.21 | 0.00 | 96 | 1017.6 |
| 20260902113316 | 76 | 105 | 0.0 | 1.0 | 0.00 | 0.21 | 0.00 | 96 | 1017.6 |
| 20260902112817 | 76 | 105 | 0.0 | 1.0 | 0.00 | 0.21 | 0.00 | 96 | 1017.6 |
| 20260902112317 | 76 | 105 | 0.0 | 2.0 | 0.00 | 0.21 | 0.00 | 96 | 1017.6 |
| 20260902111817 | 76 | 105 | 0.0 | 2.0 | 0.00 | 0.21 | 0.00 | 96 | 1017.5 |
| 20260902111316 | 76 | 105 | 0.0 | 1.0 | 0.00 | 0.21 | 0.00 | 96 | 1017.4 |
| 20260902110817 | 76 | 105 | 0.0 | 1.0 | 0.00 | 0.21 | 0.00 | 96 | 1017.4 |
| 20260902110316 | 76 | 105 | 0.0 | 0.0 | 0.00 | 0.21 | 0.00 | 96 | 1017.3 |
| 20260902105817 | 76 | 105 | 0.0 | 0.0 | 0.00 | 0.21 | 0.00 | 96 | 1017.3 |
| 20260902105317 | 75 | 105 | 0.0 | 0.0 | 0.00 | 0.21 | 0.00 | 96 | 1017.1 |
| 20260902104816 | 75 | 105 | 0.0 | 0.0 | 0.00 | 0.21 | 0.00 | 96 | 1017.1 |
| 20260902104316 | 75 | 105 | 0.0 | 0.0 | 0.00 | 0.21 | 0.00 | 96 | 1017.0 |
| 20260902103817 | 76 | 105 | 0.0 | 0.0 | 0.00 | 0.21 | 0.00 | 96 | 1017.0 |
| 20260902103548 | 76 | 105 | 0.0 | 0.0 | 0.00 | 0.21 | 0.00 | 96 | 1017.0 |
| 20260902102817 | 76 | 105 | 0.0 | 0.0 | 0.00 | 0.21 | 0.00 | 96 | 1017.0 |
| 20260902102317 | 75 | 105 | 0.0 | 0.0 | 0.00 | 0.21 | 0.00 | 96 | 1017.0 |
| 20260902101816 | 75 | 105 | 0.0 | 0.0 | 0.00 | 0.21 | 0.00 | 96 | 1017.0 |
| 20260902101316 | 76 | 105 | 0.0 | 0.0 | 0.00 | 0.21 | 0.00 | 96 | 1017.0 |
| 20260902100817 | 76 | 105 | 0.0 | 0.0 | 0.00 | 0.21 | 0.00 | 96 | 1017.0 |
| 20260902100317 | 76 | 105 | 0.0 | 0.0 | 0.00 | 0.21 | 0.00 | 96 | 1016.9 |
| 20260902095817 | 76 | 105 | 0.0 | 0.0 | 0.00 | 0.21 | 0.00 | 96 | 1016.9 |
| 20260902095548 | 76 | 105 | 0.0 | 0.0 | 0.00 | 0.21 | 0.00 | 96 | 1017.0 |
| 20260902094816 | 76 | 105 | 0.0 | 0.0 | 0.00 | 0.21 | 0.00 | 96 | 1016.9 |
| 20260902094317 | 76 | 105 | 0.0 | 0.0 | 0.00 | 0.21 | 0.00 | 96 | 1016.9 |
| 20260902094047 | 76 | 105 | 0.0 | 0.0 | 0.00 | 0.21 | 0.00 | 96 | 1016.8 |
| 20260902093317 | 76 | 105 | 0.0 | 0.0 | 0.00 | 0.21 | 0.00 | 96 | 1016.8 |
| 20260902093047 | 76 | 105 | 0.0 | 0.0 | 0.00 | 0.21 | 0.00 | 96 | 1016.7 |
| 20260902092317 | 76 | 105 | 0.0 | 0.0 | 0.00 | 0.21 | 0.00 | 96 | 1016.6 |
| 20260902091816 | 76 | 105 | 0.0 | 0.0 | 0.00 | 0.21 | 0.00 | 95 | 1016.6 |
| 20260902091317 | 76 | 105 | 0.0 | 0.0 | 0.00 | 0.21 | 0.00 | 95 | 1016.6 |
| 20260902090817 | 76 | 105 | 0.0 | 0.0 | 0.00 | 0.21 | 0.00 | 95 | 1016.6 |
| 20260902090317 | 76 | 105 | 0.0 | 0.0 | 0.00 | 0.21 | 0.00 | 95 | 1016.6 |
| 20260902085817 | 76 | 105 | 0.0 | 0.0 | 0.00 | 0.21 | 0.00 | 95 | 1016.5 |
| 20260902085316 | 76 | 105 | 0.0 | 0.0 | 0.00 | 0.21 | 0.00 | 95 | 1016.5 |
| 20260902084816 | 76 | 105 | 0.0 | 0.0 | 0.00 | 0.21 | 0.00 | 95 | 1016.5 |
| 20260902084317 | 76 | 105 | 0.0 | 0.0 | 0.00 | 0.21 | 0.00 | 95 | 1016.4 |
| 20260902083816 | 76 | 105 | 0.0 | 0.0 | 0.00 | 0.21 | 0.00 | 95 | 1016.3 |
| 20260902083316 | 76 | 105 | 0.0 | 0.0 | 0.00 | 0.21 | 0.00 | 95 | 1016.4 |
| 20260902082816 | 76 | 105 | 0.0 | 0.0 | 0.00 | 0.21 | 0.00 | 95 | 1016.3 |
| 20260902082317 | 76 | 105 | 0.0 | 0.0 | 0.00 | 0.21 | 0.00 | 95 | 1016.4 |
| 20260902081816 | 76 | 105 | 0.0 | 0.0 | 0.00 | 0.21 | 0.00 | 95 | 1016.4 |
| 20260902081317 | 76 | 105 | 0.0 | 0.0 | 0.00 | 0.21 | 0.00 | 95 | 1016.4 |
| 20260902080816 | 76 | 105 | 0.0 | 1.0 | 0.00 | 0.21 | 0.00 | 95 | 1016.3 |
| 20260902080317 | 76 | 105 | 0.0 | 1.0 | 0.00 | 0.21 | 0.00 | 95 | 1016.3 |
| 20260902075817 | 76 | 105 | 0.0 | 0.0 | 0.00 | 0.21 | 0.00 | 95 | 1016.3 |
| 20260902075316 | 76 | 105 | 0.0 | 0.0 | 0.00 | 0.21 | 0.00 | 95 | 1016.3 |
| 20260902074817 | 76 | 105 | 0.0 | 0.0 | 0.00 | 0.21 | 0.00 | 95 | 1016.3 |
| 20260902074317 | 76 | 105 | 0.0 | 0.0 | 0.00 | 0.21 | 0.00 | 95 | 1016.3 |
| 20260902073816 | 76 | 105 | 0.0 | 0.0 | 0.00 | 0.21 | 0.00 | 95 | 1016.3 |
| 20260902073317 | 76 | 105 | 0.0 | 0.0 | 0.00 | 0.21 | 0.00 | 95 | 1016.2 |
| 20260902073047 | 76 | 105 | 0.0 | 0.0 | 0.00 | 0.21 | 0.00 | 95 | 1016.3 |
| 20260902072317 | 76 | 105 | 0.0 | 0.0 | 0.00 | 0.21 | 0.00 | 95 | 1016.3 |
| 20260902071816 | 76 | 105 | 0.0 | 0.0 | 0.00 | 0.21 | 0.00 | 95 | 1016.4 |
| 20260902071321 | 76 | 105 | 0.0 | 0.0 | 0.00 | 0.21 | 0.00 | 95 | 1016.5 |
| 20260902071317 | 76 | 105 | 0.0 | 0.0 | 0.00 | 0.21 | 0.00 | 95 | 1016.4 |
| 20260902070317 | 76 | 105 | 0.0 | 0.0 | 0.00 | 0.21 | 0.00 | 95 | 1016.5 |
| 20260902065816 | 77 | 105 | 0.0 | 0.0 | 0.00 | 0.21 | 0.00 | 95 | 1016.5 |
| 20260902065317 | 77 | 105 | 0.0 | 0.0 | 0.00 | 0.21 | 0.00 | 95 | 1016.5 |
| 20260902065048 | 77 | 105 | 0.0 | 1.0 | 0.00 | 0.21 | 0.00 | 95 | 1016.5 |
| 20260902064317 | 77 | 105 | 0.0 | 1.0 | 0.00 | 0.21 | 0.00 | 95 | 1016.5 |
| 20260902063816 | 77 | 105 | 0.0 | 0.0 | 0.00 | 0.21 | 0.00 | 95 | 1016.6 |
| 20260902063316 | 77 | 105 | 0.0 | 0.0 | 0.00 | 0.21 | 0.00 | 95 | 1016.6 |
| 20260902062817 | 77 | 105 | 0.0 | 0.0 | 0.00 | 0.21 | 0.00 | 95 | 1016.5 |
| 20260902062316 | 77 | 105 | 0.0 | 0.0 | 0.00 | 0.21 | 0.00 | 95 | 1016.5 |
| 20260902062047 | 77 | 105 | 0.0 | 0.0 | 0.00 | 0.21 | 0.00 | 95 | 1016.4 |
| 20260902061548 | 77 | 105 | 0.0 | 0.0 | 0.00 | 0.21 | 0.00 | 95 | 1016.4 |
| 20260902060817 | 77 | 105 | 0.0 | 0.0 | 0.00 | 0.21 | 0.00 | 95 | 1016.6 |
| 20260902060316 | 77 | 105 | 0.0 | 0.0 | 0.00 | 0.21 | 0.00 | 95 | 1016.6 |
| 20260902060047 | 77 | 105 | 0.0 | 0.0 | 0.00 | 0.21 | 0.00 | 95 | 1016.7 |
| 20260902055316 | 77 | 105 | 0.0 | 0.0 | 0.00 | 0.21 | 0.00 | 95 | 1016.6 |
| 20260902054816 | 77 | 105 | 0.0 | 0.0 | 0.00 | 0.21 | 0.00 | 95 | 1016.6 |
| 20260902054317 | 77 | 105 | 0.0 | 0.0 | 0.00 | 0.21 | 0.00 | 95 | 1016.6 |
| 20260902053820 | 77 | 105 | 0.0 | 0.0 | 0.00 | 0.21 | 0.00 | 95 | 1016.7 |
| 20260902053816 | 77 | 105 | 0.0 | 0.0 | 0.00 | 0.21 | 0.00 | 95 | 1016.7 |
| 20260902052816 | 77 | 105 | 0.0 | 0.0 | 0.00 | 0.21 | 0.00 | 95 | 1016.7 |
| 20260902052317 | 77 | 105 | 0.0 | 0.0 | 0.00 | 0.21 | 0.00 | 95 | 1016.7 |
| 20260902052046 | 77 | 105 | 0.0 | 0.0 | 0.00 | 0.21 | 0.00 | 95 | 1016.8 |
| 20260902051315 | 77 | 105 | 0.0 | 0.0 | 0.00 | 0.21 | 0.00 | 95 | 1016.8 |
| 20260902050815 | 77 | 105 | 0.0 | 0.0 | 0.00 | 0.21 | 0.00 | 95 | 1016.8 |
| 20260902050544 | 78 | 105 | 0.0 | 0.0 | 0.00 | 0.21 | 0.00 | 95 | 1016.9 |
| 20260902045811 | 78 | 105 | 0.0 | 0.0 | 0.00 | 0.21 | 0.21 | 95 | 1016.9 |
| 20260902045310 | 78 | 105 | 0.0 | 0.0 | 0.00 | 0.21 | 0.21 | 95 | 1016.9 |
| 20260902044809 | 78 | 105 | 0.0 | 0.0 | 0.00 | 0.21 | 0.21 | 94 | 1016.9 |
| 20260902044310 | 78 | 105 | 0.0 | 0.0 | 0.00 | 0.21 | 0.21 | 94 | 1017.0 |
| 20260902043813 | 78 | 105 | 0.0 | 0.0 | 0.00 | 0.21 | 0.21 | 95 | 1017.2 |
| 20260902043809 | 78 | 105 | 0.0 | 0.0 | 0.00 | 0.21 | 0.21 | 94 | 1017.0 |
| 20260902042809 | 78 | 105 | 0.0 | 0.0 | 0.00 | 0.21 | 0.21 | 94 | 1017.2 |
| 20260902042309 | 78 | 105 | 0.0 | 0.0 | 0.00 | 0.21 | 0.21 | 94 | 1017.2 |
| 20260902041808 | 78 | 105 | 0.0 | 0.0 | 0.00 | 0.21 | 0.21 | 94 | 1017.1 |
| 20260902041307 | 78 | 105 | 0.0 | 0.0 | 0.00 | 0.21 | 0.21 | 94 | 1017.2 |
| 20260902040807 | 78 | 105 | 0.0 | 0.0 | 0.00 | 0.21 | 0.21 | 94 | 1017.2 |
| 20260902040307 | 78 | 105 | 0.0 | 0.0 | 0.00 | 0.21 | 0.21 | 94 | 1017.2 |
| 20260902035804 | 78 | 105 | 0.0 | 0.0 | 0.00 | 0.21 | 0.21 | 94 | 1017.2 |
| 20260902035305 | 78 | 105 | 0.0 | 0.0 | 0.00 | 0.21 | 0.21 | 94 | 1017.2 |
| 20260902034805 | 78 | 105 | 0.0 | 0.0 | 0.00 | 0.21 | 0.21 | 94 | 1017.3 |
| 20260902034305 | 78 | 105 | 0.0 | 0.0 | 0.00 | 0.21 | 0.21 | 94 | 1017.4 |
| 20260902033805 | 78 | 105 | 0.0 | 0.0 | 0.00 | 0.21 | 0.21 | 94 | 1017.3 |
| 20260902033305 | 79 | 105 | 0.0 | 0.0 | 0.00 | 0.21 | 0.21 | 94 | 1017.3 |
| 20260902032806 | 79 | 105 | 0.0 | 0.0 | 0.00 | 0.21 | 0.21 | 93 | 1017.3 |
| 20260902032306 | 79 | 105 | 0.0 | 0.0 | 0.00 | 0.21 | 0.21 | 93 | 1017.2 |
| 20260902031805 | 79 | 105 | 0.0 | 0.0 | 0.00 | 0.21 | 0.21 | 93 | 1017.2 |
| 20260902031304 | 79 | 105 | 0.0 | 0.0 | 0.00 | 0.21 | 0.21 | 93 | 1017.3 |
| 20260902030803 | 79 | 105 | 0.0 | 0.0 | 0.00 | 0.21 | 0.21 | 93 | 1017.3 |
| 20260902030303 | 79 | 105 | 0.0 | 0.0 | 0.00 | 0.21 | 0.21 | 93 | 1017.3 |
| 20260902025803 | 79 | 105 | 0.0 | 1.0 | 0.00 | 0.21 | 0.21 | 93 | 1017.3 |
| 20260902025306 | 79 | 105 | 0.0 | 1.0 | 0.00 | 0.21 | 0.21 | 93 | 1017.4 |
| 20260902024802 | 79 | 105 | 0.0 | 1.0 | 0.00 | 0.21 | 0.21 | 93 | 1017.4 |
| 20260902024303 | 79 | 105 | 0.0 | 1.0 | 0.00 | 0.21 | 0.21 | 93 | 1017.4 |
| 20260902023802 | 79 | 105 | 0.0 | 1.0 | 0.00 | 0.21 | 0.21 | 93 | 1017.4 |
| 20260902023303 | 79 | 106 | 0.0 | 1.0 | 0.00 | 0.21 | 0.21 | 92 | 1017.3 |
| 20260902023033 | 79 | 106 | 0.0 | 2.0 | 0.00 | 0.21 | 0.21 | 92 | 1017.4 |
| 20260902022306 | 80 | 106 | 0.0 | 2.0 | 0.00 | 0.21 | 0.21 | 93 | 1017.2 |
| 20260902021803 | 79 | 164 | 0.0 | 1.0 | 0.00 | 0.21 | 0.21 | 94 | 1017.2 |
| 20260902021303 | 79 | 200 | 0.0 | 0.0 | 0.00 | 0.21 | 0.21 | 93 | 1017.1 |
| 20260902020803 | 79 | 200 | 0.0 | 0.0 | 0.00 | 0.21 | 0.21 | 93 | 1017.0 |
| 20260902020303 | 79 | 200 | 0.0 | 0.0 | 0.00 | 0.21 | 0.21 | 93 | 1016.8 |
| 20260902020034 | 79 | 200 | 0.0 | 0.0 | 0.00 | 0.21 | 0.21 | 93 | 1016.9 |
| 20260902015305 | 79 | 200 | 0.0 | 0.0 | 0.00 | 0.21 | 0.21 | 93 | 1016.7 |
| 20260902014803 | 79 | 200 | 0.0 | 0.0 | 0.00 | 0.21 | 0.21 | 92 | 1016.7 |
| 20260902014303 | 79 | 200 | 0.0 | 0.0 | 0.00 | 0.21 | 0.21 | 92 | 1016.6 |
| 20260902013803 | 79 | 200 | 0.0 | 0.0 | 0.00 | 0.21 | 0.21 | 92 | 1016.4 |
| 20260902013300 | 79 | 200 | 0.0 | 0.0 | 0.00 | 0.21 | 0.21 | 92 | 1016.3 |
| 20260902012801 | 79 | 200 | 0.0 | 0.0 | 0.00 | 0.21 | 0.21 | 92 | 1016.2 |
| 20260902012301 | 80 | 200 | 0.0 | 0.0 | 0.00 | 0.21 | 0.21 | 92 | 1016.2 |
| 20260902011801 | 80 | 200 | 0.0 | 0.0 | 0.00 | 0.21 | 0.21 | 92 | 1016.2 |
| 20260902011301 | 80 | 200 | 0.0 | 0.0 | 0.00 | 0.21 | 0.21 | 91 | 1016.2 |
| 20260902010801 | 80 | 200 | 0.0 | 0.0 | 0.00 | 0.21 | 0.21 | 91 | 1016.3 |
| 20260902010301 | 80 | 200 | 0.0 | 0.0 | 0.00 | 0.21 | 0.21 | 91 | 1016.2 |
| 20260902010031 | 80 | 200 | 0.0 | 0.0 | 0.00 | 0.21 | 0.21 | 90 | 1016.2 |
| 20260902005530 | 80 | 200 | 0.0 | 0.0 | 0.00 | 0.21 | 0.21 | 89 | 1016.2 |
| 20260902004757 | 80 | 200 | 0.0 | 0.0 | 0.00 | 0.21 | 0.21 | 89 | 1016.0 |
| 20260902004526 | 81 | 200 | 0.0 | 0.0 | 0.00 | 0.21 | 0.21 | 88 | 1015.8 |
| 20260902003755 | 81 | 200 | 0.0 | 0.0 | 0.00 | 0.21 | 0.21 | 88 | 1015.7 |
| 20260902003255 | 81 | 200 | 0.0 | 0.0 | 0.00 | 0.21 | 0.21 | 87 | 1015.9 |
| 20260902002755 | 82 | 200 | 0.0 | 0.0 | 0.00 | 0.21 | 0.21 | 86 | 1015.9 |
| 20260902002255 | 82 | 200 | 0.0 | 0.0 | 0.00 | 0.21 | 0.21 | 85 | 1015.9 |
| 20260902001759 | 83 | 200 | 0.0 | 1.0 | 0.00 | 0.21 | 0.21 | 83 | 1015.7 |
| 20260902001755 | 83 | 200 | 0.0 | 0.0 | 0.00 | 0.21 | 0.21 | 84 | 1015.9 |
| 20260902000754 | 84 | 200 | 0.0 | 1.0 | 0.00 | 0.21 | 0.21 | 81 | 1015.6 |
| 20260902000259 | 85 | 200 | 0.0 | 1.0 | 0.00 | 0.21 | 0.21 | 78 | 1015.7 |
| 20260902000257 | 85 | 200 | 0.0 | 1.0 | 0.00 | 0.21 | 0.21 | 80 | 1015.7 |
| 20260901235255 | 85 | 200 | 0.0 | 1.0 | 0.00 | 0.21 | 0.21 | 78 | 1015.8 |
| 20260901234754 | 85 | 200 | 0.0 | 1.0 | 0.00 | 0.21 | 0.21 | 77 | 1015.7 |
| 20260901234255 | 86 | 200 | 0.0 | 2.0 | 0.00 | 0.21 | 0.21 | 77 | 1015.8 |
| 20260901233755 | 86 | 200 | 0.0 | 2.0 | 0.00 | 0.21 | 0.21 | 77 | 1015.9 |
| 20260901233525 | 86 | 212 | 0.0 | 3.0 | 0.00 | 0.21 | 0.21 | 75 | 1015.9 |
| 20260901232754 | 87 | 214 | 0.0 | 3.0 | 0.00 | 0.21 | 0.21 | 76 | 1015.9 |
| 20260901232255 | 87 | 211 | 0.0 | 3.0 | 0.00 | 0.21 | 0.21 | 75 | 1015.8 |
| 20260901231755 | 87 | 214 | 0.0 | 3.0 | 0.00 | 0.21 | 0.21 | 75 | 1015.9 |
| 20260901231255 | 87 | 204 | 0.0 | 2.0 | 0.00 | 0.21 | 0.21 | 75 | 1016.0 |
| 20260901230753 | 87 | 219 | 0.0 | 1.0 | 0.00 | 0.21 | 0.21 | 75 | 1016.0 |
| 20260901230252 | 87 | 219 | 0.0 | 3.0 | 0.00 | 0.21 | 0.21 | 74 | 1016.0 |
| 20260901225753 | 88 | 219 | 0.0 | 3.0 | 0.00 | 0.21 | 0.21 | 73 | 1016.0 |
| 20260901225253 | 89 | 203 | 0.0 | 2.0 | 0.00 | 0.21 | 0.21 | 72 | 1016.1 |
| 20260901224753 | 89 | 189 | 1.0 | 3.0 | 0.00 | 0.21 | 0.21 | 70 | 1016.1 |
| 20260901224257 | 90 | 203 | 1.0 | 7.0 | 0.00 | 0.21 | 0.21 | 70 | 1016.0 |
| 20260901223750 | 90 | 214 | 1.0 | 7.0 | 0.00 | 0.21 | 0.21 | 69 | 1015.9 |
| 20260901223521 | 90 | 200 | 1.0 | 5.0 | 0.00 | 0.21 | 0.21 | 69 | 1015.8 |
| 20260901222751 | 90 | 105 | 1.0 | 5.0 | 0.00 | 0.21 | 0.21 | 69 | 1015.8 |
| 20260901222251 | 90 | 98 | 1.0 | 4.0 | 0.00 | 0.21 | 0.21 | 70 | 1015.6 |
| 20260901221750 | 90 | 233 | 1.0 | 4.0 | 0.00 | 0.21 | 0.21 | 71 | 1015.7 |
| 20260901221251 | 90 | 115 | 2.0 | 4.0 | 0.00 | 0.21 | 0.21 | 71 | 1015.7 |
| 20260901220755 | 91 | 248 | 1.0 | 4.0 | 0.00 | 0.21 | 0.21 | 70 | 1015.7 |
| 20260901220751 | 91 | 85 | 1.0 | 4.0 | 0.00 | 0.21 | 0.21 | 70 | 1015.7 |
| 20260901220027 | 91 | 248 | 2.0 | 6.0 | 0.00 | 0.21 | 0.21 | 71 | 1015.8 |
| 20260901215751 | 91 | 207 | 2.0 | 6.0 | 0.00 | 0.21 | 0.21 | 69 | 1015.8 |
| 20260901214751 | 92 | 85 | 1.0 | 5.0 | 0.00 | 0.21 | 0.21 | 68 | 1015.9 |
| 20260901214250 | 91 | 131 | 1.0 | 5.0 | 0.00 | 0.21 | 0.21 | 68 | 1016.0 |
| 20260901213749 | 91 | 205 | 1.0 | 3.0 | 0.00 | 0.21 | 0.21 | 69 | 1016.0 |
| 20260901213249 | 90 | 96 | 1.0 | 3.0 | 0.00 | 0.21 | 0.21 | 68 | 1016.0 |
| 20260901213020 | 89 | 100 | 1.0 | 2.0 | 0.00 | 0.21 | 0.21 | 71 | 1016.1 |
| 20260901212247 | 88 | 160 | 1.0 | 3.0 | 0.00 | 0.21 | 0.21 | 72 | 1016.3 |
| 20260901211747 | 88 | 204 | 1.0 | 3.0 | 0.00 | 0.21 | 0.21 | 76 | 1016.4 |
| 20260901211247 | 87 | 200 | 1.0 | 4.0 | 0.00 | 0.21 | 0.21 | 76 | 1016.3 |
| 20260901210748 | 87 | 216 | 1.0 | 4.0 | 0.00 | 0.21 | 0.21 | 76 | 1016.3 |
| 20260901210252 | 87 | 236 | 1.0 | 3.0 | 0.01 | 0.21 | 0.21 | 77 | 1016.2 |
| 20260901205747 | 88 | 214 | 2.0 | 5.0 | 0.01 | 0.21 | 0.21 | 75 | 1016.1 |
| 20260901205246 | 88 | 214 | 2.0 | 5.0 | 0.08 | 0.21 | 0.21 | 75 | 1016.1 |
| 20260901204745 | 89 | 195 | 2.0 | 4.0 | 0.21 | 0.21 | 0.21 | 72 | 1016.2 |
| 20260901204244 | 89 | 198 | 2.0 | 4.0 | 0.21 | 0.21 | 0.21 | 72 | 1016.4 |
| 20260901203743 | 90 | 224 | 2.0 | 9.0 | 0.21 | 0.21 | 0.21 | 77 | 1016.2 |
| 20260901203514 | 89 | 216 | 2.0 | 9.0 | 0.21 | 0.22 | 0.21 | 77 | 1016.1 |
| 20260901202743 | 89 | 236 | 1.0 | 4.0 | 0.21 | 0.23 | 0.21 | 81 | 1016.2 |
| 20260901202243 | 88 | 234 | 1.0 | 4.0 | 0.21 | 0.26 | 0.21 | 82 | 1016.2 |
| 20260901201743 | 87 | 187 | 1.0 | 2.0 | 0.21 | 0.32 | 0.21 | 81 | 1016.3 |
| 20260901201513 | 87 | 210 | 1.0 | 4.0 | 0.21 | 0.55 | 0.21 | 86 | 1016.3 |
| 20260901200742 | 86 | 208 | 1.0 | 4.0 | 0.21 | 0.86 | 0.21 | 83 | 1016.3 |
| 20260901200243 | 86 | 205 | 2.0 | 9.0 | 0.20 | 1.15 | 0.21 | 81 | 1016.6 |
| 20260901195740 | 87 | 97 | 2.0 | 9.0 | 0.20 | 1.18 | 0.20 | 76 | 1016.6 |
| 20260901195241 | 89 | 205 | 1.0 | 6.0 | 0.13 | 1.11 | 0.13 | 75 | 1016.8 |
| 20260901194739 | 89 | 196 | 1.0 | 6.0 | 0.00 | 0.98 | 0.00 | 72 | 1016.7 |
| 20260901194238 | 90 | 285 | 1.0 | 4.0 | 0.00 | 0.98 | 0.00 | 72 | 1016.5 |
| 20260901193739 | 90 | 201 | 2.0 | 7.0 | 0.00 | 0.98 | 0.00 | 71 | 1016.6 |
| 20260901193237 | 90 | 206 | 2.0 | 7.0 | 0.00 | 0.98 | 0.00 | 68 | 1016.5 |
| 20260901192734 | 91 | 238 | 2.0 | 7.0 | 0.00 | 0.98 | 0.00 | 69 | 1016.7 |
| 20260901192235 | 91 | 212 | 2.0 | 7.0 | 0.00 | 0.98 | 0.00 | 68 | 1016.7 |
| 20260901191733 | 91 | 226 | 2.0 | 5.0 | 0.00 | 0.98 | 0.00 | 66 | 1016.8 |
| 20260901191504 | 92 | 221 | 2.0 | 5.0 | 0.00 | 0.98 | 0.00 | 64 | 1016.8 |
| 20260901190733 | 92 | 257 | 1.0 | 4.0 | 0.00 | 0.98 | 0.00 | 66 | 1016.8 |
| 20260901190233 | 92 | 221 | 1.0 | 4.0 | 0.00 | 0.98 | 0.00 | 68 | 1016.9 |
| 20260901185733 | 91 | 255 | 1.0 | 4.0 | 0.00 | 0.98 | 0.00 | 67 | 1016.9 |
| 20260901185231 | 91 | 245 | 1.0 | 3.0 | 0.00 | 0.98 | 0.00 | 66 | 1016.9 |
| 20260901184730 | 92 | 248 | 0.0 | 2.0 | 0.00 | 0.98 | 0.00 | 65 | 1017.0 |
| 20260901184229 | 92 | 216 | 0.0 | 2.0 | 0.00 | 0.98 | 0.00 | 64 | 1017.0 |
| 20260901183729 | 92 | 335 | 1.0 | 2.0 | 0.00 | 0.98 | 0.00 | 63 | 1017.0 |
| 20260901183228 | 93 | 45 | 1.0 | 4.0 | 0.00 | 0.98 | 0.00 | 61 | 1017.0 |
| 20260901183000 | 93 | 77 | 1.0 | 4.0 | 0.00 | 0.98 | 0.00 | 57 | 1017.1 |
| 20260901182227 | 93 | 345 | 1.0 | 2.0 | 0.00 | 0.98 | 0.00 | 57 | 1017.1 |
| 20260901181727 | 93 | 320 | 1.0 | 4.0 | 0.00 | 0.98 | 0.00 | 60 | 1017.2 |